GSAT0222 (GALILEO 26)

Last updated on Tue Dec 16 2025 00:02:36 GMT+0000 (Coordinated Universal Time)

1 43565U 18060B 25348.50986435 -.00000084 00000+0 00000+0 0 9991 2 43565 57.2308 346.7727 0006113 264.5011 95.4481 1.70475606 46069
UTC large
Height (km)
Speed (km/s)
/
Latitude / Longitude
Inclination (degrees)
Orbital Period (minutes)
Azimuth
Elevation
Range (km)
Doppler Factor

Next 0 passes for location: London (51.5072 / 0.1276)

Sorry there are no passes over London.